Regional Weather Roundup
Issued by NWS Wakefield, VA

Home | Current Version | Previous Version | Graphics & Text | Print | Product List | Glossary On
Versions: 1 2 3 4 5 6 7 8 9 10 11 12 13 14 15 16 17 18 19 20 21 22 23 24 25 26 27 28 29 30 31 32 33 34 35 36 37 38 39 40 41 42 43 44 45 46 47 48 49 50
507
ASUS41 KAKQ 172115
RWRAKQ

REGIONAL WEATHER ROUNDUP
NATIONAL WEATHER SERVICE WAKEFIELD VA
400 PM EST WED JAN 17 2018

Note: "fair" indicates few or no clouds below 12,000 feet with no
significant weather and/or obstructions to visibility. * = Denotes
station may not report precipitation (e.g., rain,snow,etc.),
thunder or fog.

VAZ042-051-052>054-056-172200-
NORTHERN VIRGINIA

CITY           SKY/WX    TMP DP  RH WIND       PRES   REMARKS
WASH NATIONAL  CLOUDY    26   8  46 N20       30.33F WCI  12
DULLES         PTSUNNY   23   7  50 NW12      30.33F WCI  12
FORT BELVOIR   FAIR      24   5  43 NW14G23   30.33F WCI  12
QUANTICO       CLOUDY    26   8  46 N15G23      N/A  WCI  14
FREDERICKSBRG* FAIR      26  10  50 N8        30.32S
STAFFORD*      CLOUDY    25   7  45 N12       30.37R WCI  14
WARRENTON      FAIR      26   2  36 N10       30.32R WCI  16
CULPEPER*      PTSUNNY   27   3  35 N8G18     30.33S
MANASSAS*      FAIR      24   9  52 N17G23    30.34F WCI  11
LEESBURG*      FAIR      27  10  50 N10G17    30.34F WCI  17
WINCHESTER     FAIR      23   3  42 NW18      30.33R WCI   9
FRONT ROYAL*   FAIR      27   7  43 N7        30.30S
LURAY*         FAIR      28   9  43 N9        30.29R
$$

VAZ048-049-060>072-079>083-172200-
CENTRAL AND SOUTH CENTRAL VIRGINIA

CITY           SKY/WX    TMP DP  RH WIND       PRES   REMARKS
RICHMOND       CLOUDY    26  15  63 N14       30.28S WCI  14
CHESTERFIELD*  NOT AVBL
PETERSBURG*    LGT SNOW  25  19  80 N10       30.28F WCI  15
HANOVER        CLOUDY    25  11  55 N7        30.31S
TAPPAHANNOCK*  CLOUDY    28  13  53 N8        30.29F
QUINTON*       CLOUDY    25  17  69 N7        30.28F
CHARLOTTSVILLE CLOUDY    30   7  37 N5        30.26F
GORDONSVILLE*  CLOUDY    26   8  46 NE8       30.29S
ORANGE*        CLOUDY    27   9  46 N13       30.30F WCI  16
LOUISA*        CLOUDY    24   5  44 N14       30.33S WCI  12
BUMPASS*       CLOUDY    24   4  42 N9        30.30S
FARMVILLE*     LGT SNOW  24  24 100 NE12      30.29R WCI  13
CREWE*         CLOUDY    23  23 100 N6        30.28R
FORT PICKETT*  CLOUDY    23  23  99 N12       30.27S WCI  12
CHASE CITY*    CLOUDY    25  25 100 N7        30.26R
CLARKSVILLE*   CLOUDY    27  27 100 N9G17     30.25R VSB 3/4
SOUTH HILL*    CLOUDY    25  24  96 N9        30.31R
LAWRENCEVILLE* CLOUDY    26  23  89 N8        30.26R VSB 1
EMPORIA*       LGT SNOW  27  25  93 NW12      30.28R WCI  16
$$

VAZ088>098-172200-
SOUTHEAST VIRGINIA

CITY           SKY/WX    TMP DP  RH WIND       PRES   REMARKS
NORFOLK        HVY SNOW  28  26  92 N13       30.23S VSB 1/4 WCI  17
VIRGINIA BEACH LGT SNOW  29  23  78 N14G24    30.24R VSB 3/4 WCI  18
NORFOLK NAVAL  SNOW      28  24  85 N12       30.25S VSB 1/2 WCI  18
WEST POINT*    CLOUDY    26  18  74 NW10      30.30F WCI  15
SALUDA*        CLOUDY    25  23  92 NW8       30.28S
NEWPORT NEWS   LGT SNOW  26  22  84 N12G21    30.25F VSB 3/4 WCI  16
LANGLEY AFB    SNOW      26  24  92 N15       30.23F VSB 1/2 WCI  14
FORT EUSTIS    LGT SNOW  26  22  85 N9        30.23F FOG
WILLIAMSBURG*  CLOUDY    28  25  86 N6        30.27F VSB 1
HR EXEC AP*    SNOW      28  25  88 VRB5      30.25S VSB 1/2
FRANKLIN*      LGT SNOW  27  25  92 N7        30.26R VSB 1
US460-WAKEFLD  LGT SNOW  26  24  92 VRB6      30.26S FOG
$$

VAZ020-022-025-037-045-172200-
WEST CENTRAL AND SOUTHWEST VIRGINIA

CITY           SKY/WX    TMP DP  RH WIND       PRES   REMARKS
STAUNTON*      CLOUDY    26   8  46 N12G18    30.27S WCI  15
WAYNESBORO*    CLOUDY    24   7  48 N8        30.23F
HOT SPRINGS VA CLOUDY    17   4  56 NW10      30.07F WCI   5
LYNCHBURG      LGT SNOW  23  21  92 NE7       30.26R VSB 1
DANVILLE       FOG       26  25  96 N14       30.25S VSB 3/4 WCI  14
SOUTH BOSTON*  CLOUDY    27  26  96 NE6       30.27R VSB 3/4
MARTINSVILLE   LGT SNOW  22  16  78 N6        30.28S
ROANOKE        CLOUDY    25  13  60 NW9       30.27F
BLACKSBURG     FLURRIES  19   8  63 W5        30.25R
DUBLIN*        CLOUDY    21   6  51 NW13G18   30.25R WCI   9
MARION*        CLOUDY    17   3  54 NW9G16    30.27R
HILLSVILLE*    LGT SNOW  15   6  66 NW16      30.17S WCI   0
RICHLANDS*     FAIR      12   3  66 NW9       30.28S
WISE*          FAIR      14   5  67 NW8       30.30S
ABINGDON*      FAIR      18   5  56 N7        30.32S
$$

MDZ021>025-VAZ099-100-172200-
SOUTHERN MARYLAND AND THE DELMARVA PENINSULA

CITY           SKY/WX    TMP DP  RH WIND       PRES   REMARKS
PATUXENT RIVER CLOUDY    27  11  51 NW16      30.28F WCI  15
BAY BRIDGE APT PTSUNNY   25  10  54 MISG      30.30F
LEONARDTOWN    PTSUNNY   27  10  50 NW9       30.30R
DOVER          MOCLDY    25  16  69 W14       30.26S WCI  13
GEORGETOWN     CLOUDY    28  12  51 NW7       30.25F
EASTON         PTSUNNY   27  10  50 N9G16     30.32S
CAMBRIDGE      SUNNY     27  10  50 N14G22    30.28S WCI  15
SALISBURY      CLOUDY    27  15  61 NW15      30.26R WCI  15
OCEAN CITY     LGT SNOW  27  22  81 NW7       30.26R
WALLOPS ISLAND SNOW      28  25  88 N8        30.26R VSB 1/2
ACCOMACK*      SNOW      26  24  92 N12G21    30.26F VSB 1/2 WCI  15
$$

NCZ012>017-030>032-172200-
NORTH CENTRAL AND EASTERN NORTH CAROLINA

CITY           SKY/WX    TMP DP  RH WIND       PRES   REMARKS
ROANOKE RAPIDS LGT SNOW  30  28  93 N12       30.24R WCI  21
RALEIGH        HVY SNOW  31  30  96 NE9       30.19R VSB 1/4
ELIZABETH CITY CLOUDY    33  30  88 N16       30.22R WCI  23
AHOSKIE*       SNOW      29  29  99 N7        30.23S VSB 1/2
EDENTON*       CLOUDY    37  30  77 NE12      30.22R
CURRITUCK*     CLOUDY    31  25  80 N10G18    30.24R WCI  22
KILL DEVIL HLS CLOUDY    35  35 100 N9G25     30.17F
MANTEO         CLOUDY    35  32  89 N15G22    30.18F
CAPE HATTERAS  LGT RAIN  39  38  96 NE13G23   30.13F FOG
TARBORO*       NOT AVBL
GOLDSBORO      LGT RAIN  38  31  76 N9        30.14F
WASHINGTON     CLOUDY    41  32  69 NE9       30.18S
GREENVILLE     FAIR      39  32  75 N12       30.20S
NEW BERN       PTSUNNY   42  33  70 N16       30.16S
WILMINGTON     CLOUDY    49  35  58 E5        30.10F
$$

VAZ048-172200-
ELSEWHERE

CITY           SKY/WX    TMP DP  RH WIND       PRES   REMARKS
HARRISBURG PA  PTSUNNY   23   9  55 NW16      30.30F WCI  10
BALTIMORE      PTSUNNY   24   7  48 NW14      30.30S WCI  12
ANNAPOLIS      FAIR      28  11  48 NW14      30.30S WCI  17
ANDREWS AFB    FAIR      24   8  50 NW14      30.29F WCI  12
PHILADELPHIA   CLOUDY    26  11  52 NW14      30.25F WCI  14
HENDERSON NC   LGT SNOW  25  23  91 NE8       30.23R VSB 3/4
GREENSBORO     LGT SNOW  24  21  88 N10G21    30.21R FOG     WCI  14
ROCKY MOUNT    SNOW      32  32 100 N13       30.20S VSB 1/4 WCI  22
$$

VAZ100-172200-
MARINE

STATION/POSITION TIME  TEMP    WIND        PRES    WAVE   SWELL
                       AIR SEA DIR/SP/G            HT/PER HT/PER
                 (UTC) (F)     (DEG/KT/KT) (MB)    (FT/S) (FT/S)
BRANDYWINE LGT   2048   26     330/ 15/ 22 1024.3F
CAPE MAY NJ      2048   26 33  330/ 19/ 26 1023.5F
LEWES DE         2048   27 34  330/ 19/ 23 1024.1F
15NM E FENWICK I 2050   29 42  310/ 21/ 25 1023.5R   6/ 5   3/10
OCEAN-CITY-INLET 2048   27 35  330/ 13/ 15 1024.4R
WACHAPREAGUE VA  2048   25 36  320/  8/ 13 1024.4R
THOMAS POINT MD  2100   25 31  330/ 17/ 19   N/A
GOOSES REEF MD   2100   27 33  330/ 16/ 17 1026.0    2/ 3
COVE POINT MD    2048   26     360/ 18/ 21 1026.1F
SOLOMONS ISLAND  2048   27 34  330/ 11/ 15 1025.2F
BISHOPS HEAD MD  2048   27 33  340/ 11/ 18 1025.5F
PINEY POINT MD   2048           10/ 12/ 15   N/A
POTOMAC MD       2100   27 34  100/ 10/ 14 1024.7    1/ 3
CAMBRIDGE MD     2048   26 32              1026.2F
LEWISETTA VA     2048   27 33  360/  9/ 13 1025.6S
RAPPAHANNOCK LGT 2048          340/ 23/ 29 1025.3F
STINGRAY PT      2100   26 34   20/ 17/ 21 1027.4    2/ 3
YORK RVR RNG VA  2048   26     360/ 17/ 19 1024.6F
YORKTOWN VA      2048   26 35  360/ 12/ 18 1024.5F
DOMINION TERM VA 2048   27     350/  9/ 11 1024.3F
KIPTOPEKE VA     2048      35  360/ 17/ 23   N/A
CAPE HENRY VA    2048   28     350/ 23/ 28   N/A
WILLOUBY STN VA  2048          360/ 15/ 17 1023.8F
S CRANEY ISL VA  2048   27     360/ 14/ 17 1023.9F
CAPE HENRY BUOY  2100      42                N/A     5/ 5   2/11
1ST LANDING BUOY 2100   28 36   20/ 21/ 27 1024.0    3/ 3
CAPE CHARLES BUO 2051      37                N/A     5/10   2/11
64NM E OF VA BCH 2050   43 55  350/ 19/ 21 1022.1R   7/10   5/10
DUCK PIER NC     2048   34 39  360/ 21/ 24 1022.2R
44100 DUCK FRF   2015      43                N/A     7/11   3/11
44056 DUCK FRF   2100      40                N/A     6/ 5   2/12
OREGON INLET NC  2036   38 41  360/ 16/ 20 1021.3F
HATTERAS NC      2048   39 48   20/ 22/ 27 1019.7F
DIAMOND SHLS NC  2050   49 72   10/ 21/ 27 1020.0F   6/11   5/11
CAPE LOOKOUT NC  2100           10/ 21/ 26 1020.4R
$$




USA.gov is the U.S. government's official web portal to all federal, state and local government web resources and services.